Weather History for Liberia, Costa Rica

Change the Weather History Date:

Sunday, October 5, 2014

  Actual Average Record
Temperature  
Mean Temperature 80 °F -  
Max Temperature 87 °F 84 °F 91 °F (2006)
Min Temperature 73 °F 73 °F 69 °F (2012)
Cooling Degree Days 15    
Growing Degree Days 30 (Base 50)    
Moisture  
Dew Point 71 °F    
Average Humidity 71    
Maximum Humidity 94    
Minimum Humidity 47    
Precipitation  
Precipitation 0.00 in - - ()
Sea Level Pressure  
Sea Level Pressure 29.81 in    
Wind  
Wind Speed 5 mph ()    
Max Wind Speed 15 mph    
Max Gust Speed -    
Visibility 7.4 miles    
Events Rain    
Averages and records for this station are not official NWS values.
T = Trace of Precipitation, MM = Missing Value Source: Averaged Metar Reports

Daily Weather History Graph

Daily Weather History Graph

Search for Another Location

Airport:

Trip Planner

Search our weather history database for the weather conditions in past years. The results will help you decide how hot, cold, wet, or windy it might be!

Date:

Astronomy

Oct. 05, 2014 Rise Set
Actual Time 5:30 AM CST 5:30 PM CST
Civil Twilight 5:09 AM CST 5:51 PM CST
Nautical Twilight 4:45 AM CST 6:15 PM CST
Astronomical Twilight 4:20 AM CST 6:40 PM CST
Moon 3:19 PM CST (10/5) 2:40 AM CST (10/5)
Length of Visible Light 12h 41m
Length of Day
11h 59m
Waxing Gibbous, 90% of the Moon is Illuminated
Oct 5
Waxing Gibbous
Oct 8
Full
Oct 15
Last Quarter
Oct 23
New
Oct 30
First Quarter

Hourly Weather History & Observations

Time (CST) Temp. Heat Index Dew Point Humidity Pressure Visibility Wind Dir Wind Speed Gust Speed Precip Events Conditions
5:55 AM 73.4 °F - 71.6 °F 94% 29.81 in 6.2 mi SW 3.5 mph - N/A   Mostly Cloudy
6:00 AM 74 °F - 72 °F 91% 29.85 in 12 mi SW 3.5 mph - -   Overcast
6:00 AM 73.4 °F - 71.6 °F 94% 29.81 in 6.2 mi SW 3.5 mph - N/A   Mostly Cloudy
6:12 AM 75.2 °F - 71.6 °F 89% 29.83 in 3.1 mi East 3.5 mph - N/A Rain Rain
7:00 AM 75.2 °F - 71.6 °F 89% 29.83 in 6.2 mi NW 2.3 mph - N/A Rain Light Rain
8:00 AM 78.8 °F - 73.4 °F 83% 29.84 in 6.2 mi WNW 4.6 mph - N/A   Mostly Cloudy
9:00 AM 82 °F - 72 °F 66% 29.87 in 12 mi West 3.5 mph - -   Overcast
9:00 AM 82.4 °F 87.2 °F 71.6 °F 70% 29.84 in 6.2 mi West 3.5 mph - N/A   Mostly Cloudy
10:00 AM 84.2 °F 90.9 °F 73.4 °F 70% 29.85 in 6.2 mi ENE 6.9 mph - N/A   Mostly Cloudy
11:00 AM 82.4 °F 88.2 °F 73.4 °F 74% 29.83 in 6.2 mi ENE 12.7 mph - N/A   Mostly Cloudy
12:00 PM 86 °F - 72 °F 54% 29.84 in 12 mi ENE 9.2 mph - -   Overcast
12:00 PM 86.0 °F 91.8 °F 71.6 °F 62% 29.81 in 6.2 mi ENE 9.2 mph - N/A   Mostly Cloudy
1:00 PM 86.0 °F 90.4 °F 69.8 °F 58% 29.79 in 6.2 mi ENE 15.0 mph - N/A   Scattered Clouds
2:00 PM 84.2 °F 88.4 °F 69.8 °F 62% 29.76 in 6.2 mi East 8.1 mph - N/A   Mostly Cloudy
3:00 PM 86 °F - 69 °F 47% 29.77 in 12 mi East 10.4 mph - -   Scattered Clouds
3:00 PM 86.0 °F 89.4 °F 68.0 °F 55% 29.74 in 6.2 mi East 10.4 mph - N/A   Scattered Clouds
4:00 PM 84.2 °F 87.3 °F 68.0 °F 58% 29.74 in 6.2 mi East 9.2 mph - N/A   Mostly Cloudy
5:00 PM 82.4 °F 85.4 °F 68.0 °F 62% 29.75 in - East 8.1 mph - N/A   Clear
6:00 PM 81 °F - 70 °F 61% 29.80 in 12 mi East 3.5 mph - -   Overcast
6:00 PM 80.6 °F 83.9 °F 69.8 °F 70% 29.76 in 6.2 mi East 3.5 mph - N/A   Mostly Cloudy
7:00 PM 78.8 °F - 69.8 °F 74% 29.79 in 6.2 mi East 3.5 mph - N/A   Mostly Cloudy
8:00 PM 77.0 °F - 69.8 °F 78% 29.82 in 6.2 mi NE 4.6 mph - N/A   Mostly Cloudy